Temp
21 19 18 17 16 15 15 15 15 13 11 11 11 10 10 11 11 11 11 11 11 11 11 11 11 12 12 12 12 11 11 11 10 10 10 10 10 10 10 10 11 11 10
18 18 18 17 16 16 15 15 14 13 11 12 12 11 10 10 10 11 11 11 11 10 11 11 11 11 12 12 12 11 11 11 10 10 10 9 9 9 10 10 10 10 10
18 18 18 17 16 15 16 15 14 14 11 11 11 11 10 10 10 10 10 10 10 10 10 10 10 11 12 12 12 11 11 11 10 10 10 9 9 9 9 9 10 10 10
18 18 18 17 16 16 15 14 14 13 11 10 10 10 10 10 10 10 10 10 10 10 10 10 10 10 11 11 11 11 11 11 11 10 10 11 11 10 9 10 10 10 10
20 18 19 19 17 16 15 14 13 12 12 10 11 10 9 9 9 10 10 9 10 10 10 9 9 9 10 11 11 11 11 11 11 11 10 11 11 11 11 10 11 10 10
18 18 16 17 16 15 15 14 13 12 11 11 10 10 10 9 9 9 8 9 9 10 9 9 9 9 10 10 10 11 11 11 11 11 11 11 11 11 11 10 11 12 12
18 16 16 16 16 16 15 13 13 12 11 10 10 10 10 9 9 9 9 9 9 9 9 9 9 9 10 10 10 9 10 10 11 11 11 11 11 12 11 10 11 11 11
19 18 18 18 18 16 15 14 13 12 11 9 9 9 9 9 8 9 8 9 9 10 10 9 9 9 9 10 10 10 10 9 10 11 11 11 11 12 11 11 11 11 11
17 16 16 17 18 17 16 15 14 12 12 11 9 9 9 9 10 9 9 9 9 9 9 9 9 9 9 9 10 9 9 9 9 10 10 11 12 11 11 11 11 11 10
14 14 15 17 17 16 15 14 13 12 12 11 10 9 8 8 10 10 10 9 9 9 9 9 9 10 9 9 9 9 9 9 9 10 10 11 11 11 11 11 11 11 11
13 13 12 13 14 14 13 13 12 11 10 10 10 9 8 8 9 10 10 10 9 9 9 10 9 9 9 9 10 10 10 10 10 10 11 11 11 11 11 11 11 11 11
13 13 13 12 13 13 13 13 12 12 11 11 10 10 10 8 8 9 10 10 10 10 10 9 9 9 9 9 9 9 10 10 10 11 10 11 11 11 11 11 11 11 11
8 9 10 10 10 10 10 10 10 11 10 10 10 10 10 9 9 8 8 9 9 9 9 9 9 9 9 9 10 10 10 10 11 10 10 10 11 11 11 11 11 11 11
7 7 8 8 9 9 9 9 10 10 10 10 10 10 10 10 10 9 9 9 9 8 8 8 8 9 9 9 9 9 10 10 10 10 10 10 10 11 11 10 10 10 10
6 7 7 8 9 9 9 9 10 10 10 10 9 9 9 10 10 9 9 9 9 9 9 8 9 9 8 9 9 9 9 9 10 10 10 10 10 10 11 10 10 10 9
6 6 8 8 9 9 9 9 10 10 9 9 9 9 9 9 9 9 9 10 9 9 9 9 9 8 8 8 8 8 9 9 9 9 10 10 10 10 10 10 9 9 8
4 5 8 8 7 8 8 9 9 9 10 10 9 9 9 9 9 9 9 9 9 9 9 9 9 10 10 10 10 9 8 8 8 9 9 10 10 10 10 10 10 9 9
5 4 6 8 8 8 8 8 10 10 10 10 10 10 9 10 9 9 9 9 8 8 8 8 9 9 10 10 10 10 9 8 9 8 9 9 9 9 9 10 9 9 9
3 5 6 6 8 8 8 8 8 8 9 10 10 10 10 9 9 9 9 9 9 9 9 8 8 8 8 9 9 9 9 9 9 9 9 9 9 9 9 9 9 10 9
2 4 4 5 6 6 6 6 7 7 7 7 8 8 7 7 8 8 8 8 7 7 7 8 8 8 9 9 9 9 9 9 9 9 9 8 8 9 9 8 9 9 8
2 3 3 4 4 4 4 5 5 6 5 5 5 6 6 7 7 6 5 4 3 4 4 4 4 5 6 7 9 9 9 9 8 8 9 8 9 8 8 8 7 7 6
0 -0 1 1 2 2 2 2 2 1 2 2 2 3 3 4 4 4 4 2 1 2 3 3 2 2 2 2 4 6 8 8 8 6 5 5 4 8 7 6 4 2 -2
-3 -3 -1 -1 -2 -2 -1 -1 -2 -2 -1 -1 -1 -1 -0 1 1 1 1 1 0 0 -1 -1 -2 -2 -2 -2 -1 -1 1 3 3 -0 -1 -4 -3 -1 -2 -2 -1 -3 -3
-3 -2 -2 -2 -3 -3 -3 -3 -4 -3 -3 -3 -3 -3 -2 -3 -2 -2 -3 -3 -3 -3 -4 -5 -5 -5 -5 -5 -5 -4 -4 -3 -3 -4 -4 -4 -4 -4 -4 -5 -5 -4 -5
-4 -3 -3 -4 -4 -4 -4 -3 -4 -3 -3 -3 -4 -4 -4 -4 -5 -5 -6 -6 -7 -5 -5 -6 -6 -7 -8 -8 -7 -6 -6 -5 -5 -6 -5 -5 -5 -6 -6 -7 -7 -7 -7
-6 -5 -5 -5 -5 -5 -5 -5 -5 -5 -5 -5 -5 -5 -5 -6 -6 -7 -7 -7 -7 -7 -7 -7 -5 -5 -7 -6 -6 -6 -6 -6 -6 -6 -6 -7 -7 -8 -8 -8 -9 -9 -9
Height
1410 1415 1420 1425 1429 1432 1434 1435 1436 1437 1440 1444 1447 1450 1453 1456 1459 1463 1466 1470 1475 1481 1487 1492 1498 1502 1507 1510 1515 1521 1526 1530 1536 1540 1545 1548 1550 1552 1554 1554 1556 1559 1561
1408 1410 1415 1421 1423 1427 1430 1433 1434 1436 1439 1442 1445 1448 1452 1455 1459 1463 1468 1471 1474 1479 1485 1491 1496 1502 1506 1510 1514 1518 1523 1530 1533 1537 1540 1545 1549 1550 1552 1554 1555 1558 1560
1398 1404 1408 1414 1419 1423 1426 1430 1433 1435 1437 1440 1443 1447 1451 1455 1458 1461 1465 1469 1472 1478 1482 1489 1494 1499 1504 1509 1512 1517 1522 1526 1531 1534 1536 1541 1544 1548 1550 1551 1552 1555 1556
1393 1397 1402 1408 1413 1417 1424 1428 1431 1433 1435 1437 1441 1444 1448 1451 1454 1457 1461 1465 1469 1475 1479 1487 1491 1496 1502 1507 1513 1517 1520 1525 1527 1532 1535 1537 1538 1543 1547 1548 1549 1550 1551
1387 1391 1395 1401 1408 1414 1420 1425 1429 1431 1432 1434 1438 1442 1445 1449 1451 1454 1458 1463 1464 1472 1477 1484 1489 1495 1500 1506 1510 1515 1517 1521 1524 1527 1530 1533 1536 1541 1542 1542 1544 1545 1546
1383 1387 1393 1398 1405 1413 1418 1422 1425 1428 1431 1433 1435 1439 1442 1446 1448 1452 1454 1458 1462 1468 1474 1480 1486 1491 1497 1502 1506 1512 1514 1517 1522 1525 1527 1529 1531 1536 1538 1540 1540 1540 1540
1379 1384 1386 1392 1400 1408 1413 1418 1422 1425 1428 1431 1434 1438 1440 1443 1446 1449 1451 1455 1459 1463 1470 1476 1482 1487 1492 1497 1500 1505 1508 1512 1518 1520 1522 1526 1529 1531 1533 1536 1536 1536 1538
1371 1373 1378 1386 1395 1403 1409 1415 1419 1422 1426 1429 1432 1436 1439 1441 1444 1447 1450 1454 1458 1462 1467 1471 1478 1482 1487 1492 1498 1502 1504 1508 1511 1517 1518 1521 1523 1525 1525 1528 1531 1530 1531
1361 1366 1374 1383 1391 1399 1406 1411 1416 1420 1423 1426 1430 1434 1437 1440 1441 1444 1449 1452 1457 1461 1466 1470 1475 1479 1482 1487 1493 1497 1499 1503 1507 1511 1515 1517 1518 1520 1522 1523 1524 1525 1524
1366 1370 1375 1383 1391 1399 1405 1412 1418 1422 1425 1428 1432 1434 1436 1439 1442 1444 1447 1450 1455 1459 1463 1468 1472 1477 1481 1485 1489 1492 1496 1499 1502 1505 1507 1509 1510 1513 1515 1516 1516 1517 1516
1373 1377 1381 1387 1393 1399 1406 1411 1417 1422 1426 1429 1432 1435 1437 1439 1441 1444 1447 1450 1454 1459 1462 1466 1470 1473 1477 1481 1484 1487 1490 1493 1496 1498 1500 1500 1503 1504 1506 1507 1507 1508 1508
1377 1384 1388 1392 1398 1404 1410 1413 1418 1421 1424 1427 1430 1431 1434 1437 1440 1443 1446 1450 1453 1457 1461 1465 1468 1470 1473 1475 1478 1480 1483 1485 1487 1489 1491 1491 1496 1495 1497 1497 1498 1498 1499
1388 1388 1389 1393 1400 1407 1410 1413 1417 1420 1423 1424 1426 1429 1432 1434 1437 1440 1444 1447 1451 1454 1456 1458 1459 1463 1466 1468 1470 1473 1474 1475 1477 1480 1481 1483 1486 1485 1487 1487 1488 1489 1489
1398 1398 1397 1401 1404 1407 1410 1412 1414 1417 1418 1420 1423 1425 1428 1430 1433 1435 1438 1441 1444 1446 1448 1450 1452 1454 1456 1458 1460 1462 1464 1466 1467 1469 1469 1471 1472 1472 1474 1476 1477 1477 1477
1407 1407 1407 1408 1407 1408 1413 1414 1415 1416 1415 1416 1419 1422 1424 1426 1428 1429 1432 1434 1435 1437 1439 1441 1443 1445 1446 1446 1449 1451 1453 1454 1454 1455 1455 1456 1458 1459 1460 1462 1462 1463 1462
1410 1410 1410 1413 1412 1413 1413 1415 1415 1416 1415 1416 1417 1418 1419 1421 1423 1425 1426 1427 1428 1428 1431 1431 1432 1433 1433 1433 1436 1438 1439 1440 1440 1440 1440 1441 1444 1444 1445 1448 1449 1451 1449
1418 1418 1418 1421 1418 1415 1415 1414 1415 1416 1416 1415 1415 1416 1416 1416 1417 1418 1419 1421 1422 1423 1422 1421 1423 1422 1421 1422 1423 1424 1427 1427 1427 1428 1428 1428 1428 1429 1429 1430 1432 1434 1436
1426 1423 1420 1423 1419 1416 1415 1415 1416 1417 1416 1415 1413 1413 1412 1412 1412 1413 1413 1413 1413 1413 1414 1415 1414 1412 1411 1410 1410 1412 1414 1415 1415 1415 1415 1415 1414 1415 1416 1417 1415 1416 1419
1426 1425 1424 1424 1420 1417 1417 1419 1418 1418 1415 1412 1410 1411 1410 1408 1406 1406 1406 1405 1405 1406 1406 1406 1405 1404 1402 1403 1401 1402 1403 1401 1399 1401 1402 1402 1400 1400 1404 1404 1401 1401 1402
1426 1427 1425 1424 1421 1420 1421 1421 1418 1415 1413 1411 1408 1407 1405 1403 1402 1401 1399 1397 1396 1396 1395 1396 1394 1393 1392 1391 1388 1389 1390 1388 1387 1388 1390 1389 1386 1386 1387 1388 1388 1387 1386
1425 1426 1425 1424 1423 1423 1421 1420 1417 1414 1412 1409 1408 1407 1404 1401 1398 1395 1392 1391 1391 1390 1388 1386 1385 1383 1380 1378 1375 1376 1378 1380 1381 1379 1376 1374 1369 1370 1372 1375 1375 1372 1370
1426 1425 1425 1424 1422 1421 1421 1419 1417 1415 1412 1411 1410 1407 1404 1401 1397 1394 1391 1388 1387 1385 1385 1383 1380 1377 1374 1370 1368 1367 1368 1369 1370 1367 1364 1359 1356 1357 1358 1360 1361 1355 1366
1426 1425 1424 1423 1423 1422 1420 1417 1416 1415 1413 1411 1409 1406 1405 1400 1396 1393 1390 1388 1386 1383 1381 1380 1379 1377 1375 1371 1368 1365 1362 1361 1360 1360 1357 1357 1357 1348 1359 1358 1354 1364 1362
1425 1424 1424 1423 1422 1420 1419 1417 1416 1416 1414 1411 1409 1407 1403 1400 1397 1394 1392 1390 1388 1386 1384 1382 1380 1379 1378 1376 1373 1370 1367 1363 1364 1362 1369 1361 1368 1364 1359 1365 1378 1360 1370
1425 1424 1424 1425 1424 1423 1421 1420 1419 1417 1416 1414 1413 1409 1407 1403 1400 1398 1397 1395 1393 1392 1388 1385 1383 1383 1383 1384 1382 1379 1378 1373 1369 1375 1369 1373 1367 1370 1373 1379 1379 1375 1375
1428 1427 1428 1426 1426 1425 1425 1425 1424 1423 1422 1420 1416 1413 1411 1408 1406 1405 1404 1402 1401 1399 1397 1396 1391 1387 1391 1393 1391 1390 1388 1389 1383 1386 1376 1384 1377 1386 1378 1385 1383 1379 1384
Wind_Speed
43 38 34 30 27 24 19 14 15 18 19 19 20 20 22 20 22 25 31 31 29 34 34 35 35 36 38 39 41 46 40 30 26 24 19 20 18 15 14 14 14 16 15
36 37 36 33 32 26 21 16 16 19 23 20 21 23 23 23 23 25 33 34 33 38 36 36 34 36 36 37 40 47 41 33 28 26 26 21 19 19 19 18 17 17 17
40 40 39 37 34 31 24 19 17 20 23 24 26 24 22 21 24 29 32 36 35 37 37 35 36 38 38 40 40 46 42 38 32 29 25 16 9 18 21 23 22 21 22
36 42 42 39 38 33 26 20 18 22 24 26 28 29 29 29 28 29 33 39 38 39 37 33 36 39 40 41 40 40 38 37 37 33 33 24 16 12 14 23 28 27 27
40 44 47 43 40 34 28 23 20 21 23 26 30 30 29 31 32 34 32 36 45 42 41 39 36 39 41 44 40 37 38 37 37 36 34 24 22 23 18 21 27 31 33
37 45 43 43 39 33 29 26 23 21 23 24 27 28 28 28 28 27 32 32 37 46 41 38 36 37 42 43 42 42 39 40 38 36 33 33 31 26 23 26 22 20 22
28 38 44 44 40 36 32 29 26 23 23 24 24 23 19 21 22 22 26 28 32 44 40 40 39 35 37 42 39 41 42 43 40 38 38 35 30 24 36 35 31 29 26
29 44 49 45 42 39 35 31 27 24 22 22 21 19 19 20 21 21 23 26 29 33 41 42 40 35 37 44 42 43 40 40 37 39 35 37 36 34 36 39 37 35 37
34 43 45 43 42 39 35 31 27 25 22 21 20 22 20 22 19 20 24 25 26 37 40 40 40 36 37 38 40 41 33 36 33 32 35 45 43 39 39 40 40 39 34
21 30 38 39 39 37 33 29 25 23 20 20 20 21 21 25 22 21 22 26 29 43 41 37 35 33 33 37 41 37 34 37 41 43 47 44 46 41 41 41 42 41 41
15 19 20 25 30 31 29 27 24 21 20 19 19 20 22 24 24 24 25 29 32 37 42 39 40 38 38 38 39 39 41 43 45 48 48 45 48 47 47 45 44 45 46
24 20 18 13 9 9 15 18 19 20 19 16 18 19 20 22 25 27 28 31 37 35 35 37 40 43 46 45 47 48 48 49 51 51 51 51 49 50 50 48 48 49 49
34 36 32 26 20 14 11 7 6 9 14 18 19 19 19 22 23 26 29 32 36 40 40 40 42 46 46 48 50 52 53 54 53 52 52 54 53 54 53 54 54 54 54
31 34 36 34 28 23 19 16 12 7 10 15 17 19 19 20 22 24 27 28 30 35 38 40 41 44 47 50 52 54 55 56 58 58 59 60 59 61 60 60 60 59 59
28 31 30 28 27 24 18 15 12 8 7 6 9 16 17 20 23 26 27 30 32 32 34 37 41 44 48 51 53 56 60 62 62 62 64 64 65 66 66 65 65 63 63
25 25 27 25 25 22 20 16 12 9 6 7 4 3 11 18 21 23 25 29 33 37 37 38 39 42 45 49 53 56 60 61 62 63 63 64 65 65 67 67 64 63 57
16 18 21 18 18 19 18 18 15 11 7 5 2 2 5 9 12 16 24 26 31 31 36 39 42 45 46 47 48 48 52 55 58 61 62 62 62 62 62 61 61 60 59
11 14 17 13 14 14 14 14 12 11 10 8 8 7 6 7 10 13 16 19 25 29 31 37 42 45 48 48 50 52 50 49 53 55 59 61 61 61 59 57 57 55 54
13 12 11 10 8 11 12 10 9 9 11 13 13 13 12 12 12 12 12 16 21 25 28 31 36 35 46 50 53 52 53 54 55 54 52 54 57 58 56 55 56 55 54
12 10 10 10 10 10 9 7 9 10 12 13 14 16 18 18 17 15 15 16 17 21 24 25 30 35 40 46 53 53 51 54 56 55 56 59 61 61 61 60 60 62 61
9 9 9 11 11 10 10 9 10 12 13 13 13 14 15 16 18 19 19 17 16 17 20 22 22 24 31 37 47 51 52 52 51 52 54 58 63 64 63 63 55 55 58
9 10 10 13 13 13 12 13 13 13 11 10 11 12 14 14 15 15 15 16 15 14 14 15 17 18 21 26 30 37 44 46 42 36 34 37 42 56 60 52 38 33 29
13 12 12 13 14 14 14 14 15 14 12 12 13 15 16 16 17 16 16 14 13 14 15 15 15 16 17 19 21 21 16 16 18 15 18 13 4 7 5 14 18 19 20
12 12 12 14 15 16 15 15 14 13 13 15 16 18 20 22 23 24 25 22 20 17 16 18 20 19 19 19 17 13 10 6 8 13 9 12 14 20 25 24 20 24 21
12 12 14 15 16 15 15 15 14 13 13 15 16 18 20 23 26 26 28 28 26 22 21 22 22 24 25 20 13 13 15 18 23 22 25 24 26 26 25 22 20 20 17
13 14 15 15 16 15 16 16 14 13 14 16 17 18 19 21 22 24 25 25 24 24 25 23 23 24 20 17 17 17 17 16 17 18 24 22 24 20 21 18 17 17 14
Wind_Direction
226 218 216 211 207 209 212 217 218 210 194 203 209 207 201 205 206 200 194 186 198 197 200 200 195 192 193 189 187 185 185 187 186 184 187 190 201 210 210 205 199 202 203
218 217 213 208 208 209 213 213 215 212 201 201 206 208 202 206 203 206 203 206 209 204 205 204 201 197 192 188 190 186 184 190 194 190 182 187 205 213 217 219 221 224 225
212 210 207 208 207 209 213 214 214 212 207 204 208 212 212 207 209 214 215 217 219 210 206 203 203 201 194 193 190 192 197 197 198 203 195 172 192 217 229 229 233 234 238
215 210 208 208 210 210 211 214 213 210 210 207 209 212 213 217 217 223 222 218 219 214 207 211 207 203 201 198 197 196 198 199 199 203 210 213 203 205 224 243 245 241 242
220 212 213 214 210 208 209 212 212 210 211 210 212 214 221 225 228 228 225 222 212 210 217 212 213 209 207 205 201 204 206 206 205 205 205 200 210 219 225 255 251 243 245
222 218 212 210 208 205 208 211 211 210 211 209 217 220 227 233 232 231 229 224 220 211 215 214 216 214 214 213 209 210 212 211 216 211 210 211 207 220 234 236 250 261 258
215 209 209 207 205 204 207 210 210 210 211 211 214 216 228 228 226 224 216 215 215 217 212 213 215 217 217 218 217 219 218 211 219 217 218 219 218 253 237 242 249 254 258
227 212 211 208 205 204 206 210 212 212 214 212 212 213 211 218 235 227 217 217 218 212 214 213 214 216 216 216 219 231 230 218 211 229 224 223 232 240 240 238 248 255 263
201 201 204 206 204 205 209 211 213 214 215 218 211 212 217 217 221 230 229 223 219 210 209 211 211 218 214 220 224 225 215 218 217 232 238 237 240 240 243 247 249 254 255
176 185 198 201 203 205 207 208 213 219 221 221 223 221 223 220 221 225 228 230 213 207 211 216 219 221 223 222 224 216 212 221 228 230 236 240 239 242 246 249 252 252 255
152 166 171 194 197 201 204 205 209 217 224 228 232 231 230 230 227 225 224 222 220 218 222 224 222 227 232 233 233 232 230 232 231 235 240 242 241 246 251 253 254 256 256
111 121 129 143 160 187 214 218 215 223 229 233 235 244 241 236 232 232 228 226 224 225 232 238 239 236 233 233 233 233 235 237 238 240 241 243 244 248 253 257 258 260 260
75 91 103 104 114 120 130 156 192 233 247 248 247 247 248 245 242 237 236 237 236 242 247 247 245 242 240 240 238 238 240 243 244 245 246 248 248 251 253 256 259 262 264
67 78 87 90 99 104 116 129 141 178 233 249 251 256 258 259 257 254 249 247 245 245 248 249 248 247 246 246 244 244 245 247 249 251 252 253 252 254 256 258 261 264 266
67 72 74 79 87 94 97 102 105 100 68 136 210 245 268 273 269 263 261 259 259 259 257 253 252 250 249 247 249 249 250 251 252 253 254 255 256 258 259 260 262 265 265
68 65 64 65 71 75 75 76 77 74 85 103 120 223 239 242 256 272 278 273 268 265 264 263 262 258 255 255 252 249 250 252 255 257 257 257 258 259 262 263 265 263 261
67 69 68 58 58 60 60 58 53 54 55 53 58 199 231 242 250 254 253 255 266 275 274 273 269 267 267 267 268 265 256 255 256 258 260 261 262 263 264 264 265 265 265
90 76 71 47 47 54 52 43 34 26 33 27 17 1 330 292 265 255 257 259 256 255 256 264 272 274 276 276 275 273 268 261 260 263 262 262 263 263 264 265 267 268 266
90 80 74 73 64 51 44 31 26 22 11 8 6 357 349 338 327 309 282 267 263 264 265 266 265 265 271 277 278 274 267 262 263 263 264 265 267 268 267 266 266 266 264
103 96 78 62 57 55 46 30 27 21 16 8 360 348 344 340 334 327 316 310 300 288 283 278 271 267 266 267 269 268 264 262 265 268 263 257 258 260 262 260 260 262 257
87 81 74 65 56 46 37 28 27 24 19 8 359 350 345 341 338 337 333 328 323 316 312 308 300 288 273 259 258 260 263 259 256 256 256 256 257 256 254 252 246 242 244
93 77 63 56 51 44 38 36 35 34 31 26 17 14 10 6 359 352 345 337 334 342 336 327 321 311 299 294 286 273 265 261 253 250 245 246 256 257 255 251 241 226 212
94 78 63 55 51 46 44 43 43 39 41 41 43 42 38 38 36 31 25 17 11 7 9 9 2 356 350 340 340 339 333 288 253 210 212 181 216 225 170 192 194 170 152
86 75 63 55 49 45 47 52 51 46 48 52 53 53 53 54 53 53 50 49 48 46 48 45 42 37 31 24 22 33 52 99 129 134 107 102 114 99 113 120 119 122 127
73 72 67 63 58 51 51 57 57 55 60 63 66 66 63 63 61 61 60 58 59 54 60 67 69 63 57 53 53 71 87 99 112 113 116 109 106 106 103 101 103 99 97
73 73 75 73 68 63 60 58 63 68 78 82 79 79 79 77 77 79 80 79 80 78 75 72 66 71 67 59 62 68 76 88 96 105 94 92 93 90 89 85 83 81 80